| time (UTC) | temp F | wind direction | speed MPH | gust MPH | rain 1hr in | rain 24hr in | rain mn in | humidity % | barometer mb |
| 20260901153440 | 87 | 302 | 0.0 | 1.0 | 0.00 | 0.00 | 0.00 | 22 | 1012.7 |
| 20260901152940 | 87 | 89 | 0.0 | 1.0 | 0.00 | 0.00 | 0.00 | 22 | 1012.6 |
| 20260901152440 | 87 | 139 | 0.0 | 1.0 | 0.00 | 0.00 | 0.00 | 23 | 1012.6 |
| 20260901151939 | 86 | 139 | 0.0 | 1.0 | 0.00 | 0.00 | 0.00 | 28 | 1012.6 |
| 20260901151441 | 85 | 139 | 0.0 | 1.0 | 0.00 | 0.00 | 0.00 | 24 | 1012.6 |
| 20260901150941 | 84 | 140 | 0.0 | 1.0 | 0.00 | 0.00 | 0.00 | 30 | 1012.6 |
| 20260901150440 | 83 | 140 | 0.0 | 1.0 | 0.00 | 0.00 | 0.00 | 30 | 1012.5 |
| 20260901145940 | 82 | 143 | 0.0 | 1.0 | 0.00 | 0.00 | 0.00 | 33 | 1012.5 |
| 20260901145439 | 82 | 143 | 0.0 | 1.0 | 0.00 | 0.00 | 0.00 | 33 | 1012.5 |
| 20260901144934 | 81 | 175 | 0.0 | 2.0 | 0.00 | 0.00 | 0.00 | 35 | 1012.5 |
| 20260901144434 | 80 | 210 | 0.0 | 2.0 | 0.00 | 0.00 | 0.00 | 35 | 1012.4 |
| 20260901143932 | 79 | 210 | 0.0 | 2.0 | 0.00 | 0.00 | 0.00 | 34 | 1012.4 |
| 20260901143432 | 79 | 210 | 0.0 | 2.0 | 0.00 | 0.00 | 0.00 | 35 | 1012.4 |
| 20260901142931 | 79 | 139 | 0.0 | 2.0 | 0.00 | 0.00 | 0.00 | 39 | 1012.4 |
| 20260901142432 | 79 | 167 | 0.0 | 2.0 | 0.00 | 0.00 | 0.00 | 36 | 1012.4 |
| 20260901141931 | 79 | 136 | 0.0 | 1.0 | 0.00 | 0.00 | 0.00 | 37 | 1012.3 |
| 20260901140931 | 78 | 136 | 0.0 | 1.0 | 0.00 | 0.00 | 0.00 | 37 | 1012.2 |
| 20260901140432 | 77 | 162 | 0.0 | 0.0 | 0.00 | 0.00 | 0.00 | 37 | 1012.2 |
| 20260901135929 | 76 | 184 | 0.0 | 1.0 | 0.00 | 0.00 | 0.00 | 39 | 1012.2 |
| 20260901135425 | 75 | 151 | 0.0 | 1.0 | 0.00 | 0.00 | 0.00 | 39 | 1012.1 |
| 20260901135145 | 74 | 158 | 0.0 | 0.0 | 0.00 | 0.00 | 0.00 | 40 | 1012.0 |
| 20260901134415 | 74 | 158 | 0.0 | 0.0 | 0.00 | 0.00 | 0.00 | 41 | 1011.9 |
| 20260901133906 | 75 | 158 | 0.0 | 0.0 | 0.00 | 0.00 | 0.00 | 39 | 1011.9 |
| 20260901133408 | 75 | 158 | 0.0 | 1.0 | 0.00 | 0.00 | 0.00 | 38 | 1011.9 |
| 20260901133129 | 74 | 171 | 0.0 | 1.0 | 0.00 | 0.00 | 0.00 | 41 | 1011.8 |
| 20260901132406 | 74 | 171 | 0.0 | 1.0 | 0.00 | 0.00 | 0.00 | 39 | 1011.8 |
| 20260901132139 | 75 | 172 | 0.0 | 1.0 | 0.00 | 0.00 | 0.00 | 39 | 1011.7 |
| 20260901131405 | 75 | 229 | 0.0 | 1.0 | 0.00 | 0.00 | 0.00 | 39 | 1011.7 |
| 20260901131144 | 74 | 229 | 0.0 | 1.0 | 0.00 | 0.00 | 0.00 | 39 | 1011.7 |
| 20260901130634 | 74 | 200 | 1.0 | 3.0 | 0.00 | 0.00 | 0.00 | 40 | 1011.6 |
| 20260901125902 | 74 | 195 | 1.0 | 3.0 | 0.00 | 0.00 | 0.00 | 40 | 1011.5 |
| 20260901125403 | 74 | 170 | 0.0 | 1.0 | 0.00 | 0.00 | 0.00 | 39 | 1011.5 |
| 20260901124903 | 75 | 170 | 0.0 | 1.0 | 0.00 | 0.00 | 0.00 | 40 | 1011.4 |
| 20260901124402 | 75 | 148 | 0.0 | 2.0 | 0.00 | 0.00 | 0.00 | 39 | 1011.4 |
| 20260901123902 | 75 | 172 | 0.0 | 2.0 | 0.00 | 0.00 | 0.00 | 39 | 1011.4 |
| 20260901123404 | 75 | 202 | 0.0 | 2.0 | 0.00 | 0.00 | 0.00 | 40 | 1011.4 |
| 20260901123130 | 74 | 166 | 0.0 | 2.0 | 0.00 | 0.00 | 0.00 | 39 | 1011.5 |
| 20260901122124 | 75 | 213 | 0.0 | 1.0 | 0.00 | 0.00 | 0.00 | 40 | 1011.5 |
| 20260901121401 | 75 | 214 | 0.0 | 1.0 | 0.00 | 0.00 | 0.00 | 40 | 1011.4 |
| 20260901121125 | 75 | 213 | 0.0 | 1.0 | 0.00 | 0.00 | 0.00 | 39 | 1011.3 |
| 20260901120401 | 75 | 213 | 0.0 | 0.0 | 0.00 | 0.00 | 0.00 | 39 | 1011.3 |
| 20260901115901 | 75 | 213 | 0.0 | 0.0 | 0.00 | 0.00 | 0.00 | 39 | 1011.4 |
| 20260901115401 | 75 | 214 | 0.0 | 0.0 | 0.00 | 0.00 | 0.00 | 38 | 1011.3 |
| 20260901114901 | 75 | 214 | 0.0 | 1.0 | 0.00 | 0.00 | 0.00 | 38 | 1011.4 |
| 20260901114401 | 76 | 213 | 0.0 | 1.0 | 0.00 | 0.00 | 0.00 | 38 | 1011.4 |
| 20260901113901 | 75 | 213 | 0.0 | 1.0 | 0.00 | 0.00 | 0.00 | 38 | 1011.4 |
| 20260901113401 | 76 | 195 | 0.0 | 1.0 | 0.00 | 0.00 | 0.00 | 37 | 1011.3 |
| 20260901112902 | 76 | 195 | 0.0 | 1.0 | 0.00 | 0.00 | 0.00 | 37 | 1011.4 |
| 20260901112402 | 76 | 223 | 0.0 | 1.0 | 0.00 | 0.00 | 0.00 | 36 | 1011.4 |
| 20260901111900 | 76 | 223 | 0.0 | 1.0 | 0.00 | 0.00 | 0.00 | 37 | 1011.4 |
| 20260901111401 | 76 | 135 | 0.0 | 1.0 | 0.00 | 0.00 | 0.00 | 36 | 1011.4 |
| 20260901110901 | 76 | 135 | 0.0 | 1.0 | 0.00 | 0.00 | 0.00 | 37 | 1011.3 |
| 20260901110402 | 76 | 167 | 0.0 | 1.0 | 0.00 | 0.00 | 0.00 | 36 | 1011.2 |
| 20260901105901 | 76 | 260 | 0.0 | 0.0 | 0.00 | 0.00 | 0.00 | 37 | 1011.2 |
| 20260901105400 | 76 | 260 | 0.0 | 1.0 | 0.00 | 0.00 | 0.00 | 35 | 1011.3 |
| 20260901104901 | 76 | 260 | 0.0 | 1.0 | 0.00 | 0.00 | 0.00 | 35 | 1011.3 |
| 20260901104400 | 77 | 279 | 0.0 | 0.0 | 0.00 | 0.00 | 0.00 | 35 | 1011.2 |
| 20260901103902 | 77 | 279 | 0.0 | 0.0 | 0.00 | 0.00 | 0.00 | 34 | 1011.3 |
| 20260901103402 | 77 | 279 | 0.0 | 1.0 | 0.00 | 0.00 | 0.00 | 35 | 1011.3 |
| 20260901102901 | 78 | 279 | 0.0 | 1.0 | 0.00 | 0.00 | 0.00 | 34 | 1011.3 |
| 20260901102403 | 78 | 207 | 0.0 | 2.0 | 0.00 | 0.00 | 0.00 | 33 | 1011.3 |
| 20260901101901 | 78 | 247 | 0.0 | 2.0 | 0.00 | 0.00 | 0.00 | 33 | 1011.3 |
| 20260901101401 | 78 | 137 | 0.0 | 2.0 | 0.00 | 0.00 | 0.00 | 32 | 1011.3 |
| 20260901100900 | 78 | 248 | 0.0 | 1.0 | 0.00 | 0.00 | 0.00 | 33 | 1011.3 |
| 20260901100402 | 78 | 152 | 0.0 | 0.0 | 0.00 | 0.00 | 0.00 | 32 | 1011.3 |
| 20260901095901 | 79 | 150 | 0.0 | 0.0 | 0.00 | 0.00 | 0.00 | 33 | 1011.3 |
| 20260901095401 | 79 | 174 | 0.0 | 1.0 | 0.00 | 0.00 | 0.00 | 32 | 1011.2 |
| 20260901094901 | 79 | 158 | 1.0 | 4.0 | 0.00 | 0.00 | 0.00 | 32 | 1011.3 |
| 20260901094400 | 79 | 240 | 1.0 | 4.0 | 0.00 | 0.00 | 0.00 | 32 | 1011.3 |
| 20260901093902 | 79 | 207 | 1.0 | 3.0 | 0.00 | 0.00 | 0.00 | 33 | 1011.2 |
| 20260901093402 | 79 | 219 | 0.0 | 3.0 | 0.00 | 0.00 | 0.00 | 33 | 1011.3 |
| 20260901092901 | 78 | 125 | 0.0 | 3.0 | 0.00 | 0.00 | 0.00 | 33 | 1011.2 |
| 20260901092403 | 79 | 234 | 0.0 | 3.0 | 0.00 | 0.00 | 0.00 | 34 | 1011.2 |
| 20260901091129 | 78 | 179 | 0.0 | 2.0 | 0.00 | 0.00 | 0.00 | 33 | 1011.0 |
| 20260901090402 | 79 | 233 | 0.0 | 1.0 | 0.00 | 0.00 | 0.00 | 34 | 1011.1 |
| 20260901085903 | 79 | 117 | 0.0 | 2.0 | 0.00 | 0.00 | 0.00 | 34 | 1011.0 |
| 20260901085625 | 79 | 154 | 0.0 | 2.0 | 0.00 | 0.00 | 0.00 | 34 | 1011.1 |
| 20260901084902 | 79 | 139 | 0.0 | 0.0 | 0.00 | 0.00 | 0.00 | 34 | 1011.0 |
| 20260901084402 | 79 | 139 | 0.0 | 0.0 | 0.00 | 0.00 | 0.00 | 33 | 1010.9 |
| 20260901084126 | 80 | 134 | 0.0 | 2.0 | 0.00 | 0.00 | 0.00 | 33 | 1010.8 |
| 20260901083401 | 80 | 134 | 0.0 | 2.0 | 0.00 | 0.00 | 0.00 | 33 | 1010.8 |
| 20260901082401 | 80 | 93 | 0.0 | 1.0 | 0.00 | 0.00 | 0.00 | 34 | 1010.8 |
| 20260901082126 | 80 | 89 | 0.0 | 2.0 | 0.00 | 0.00 | 0.00 | 35 | 1010.8 |
| 20260901081401 | 81 | 148 | 0.0 | 2.0 | 0.00 | 0.00 | 0.00 | 34 | 1010.8 |
| 20260901080901 | 81 | 188 | 0.0 | 1.0 | 0.00 | 0.00 | 0.00 | 36 | 1010.8 |
| 20260901080402 | 81 | 188 | 0.0 | 1.0 | 0.00 | 0.00 | 0.00 | 34 | 1010.9 |
| 20260901075901 | 82 | 127 | 0.0 | 1.0 | 0.00 | 0.00 | 0.00 | 33 | 1010.8 |
| 20260901075401 | 82 | 146 | 0.0 | 1.0 | 0.00 | 0.00 | 0.00 | 32 | 1010.8 |
| 20260901074901 | 82 | 167 | 0.0 | 1.0 | 0.00 | 0.00 | 0.00 | 34 | 1010.8 |
| 20260901074401 | 82 | 181 | 0.0 | 3.0 | 0.00 | 0.00 | 0.00 | 33 | 1010.7 |
| 20260901073901 | 82 | 181 | 0.0 | 3.0 | 0.00 | 0.00 | 0.00 | 33 | 1010.7 |
| 20260901073403 | 82 | 207 | 0.0 | 3.0 | 0.00 | 0.00 | 0.00 | 33 | 1010.7 |
| 20260901072903 | 83 | 172 | 1.0 | 4.0 | 0.00 | 0.00 | 0.00 | 33 | 1010.7 |
| 20260901072402 | 83 | 165 | 1.0 | 4.0 | 0.00 | 0.00 | 0.00 | 33 | 1010.7 |
| 20260901072129 | 84 | 162 | 0.0 | 2.0 | 0.00 | 0.00 | 0.00 | 33 | 1010.7 |
| 20260901071400 | 84 | 137 | 0.0 | 2.0 | 0.00 | 0.00 | 0.00 | 31 | 1010.7 |
| 20260901070901 | 84 | 113 | 0.0 | 2.0 | 0.00 | 0.00 | 0.00 | 30 | 1010.8 |
| 20260901070402 | 85 | 150 | 0.0 | 1.0 | 0.00 | 0.00 | 0.00 | 29 | 1010.7 |
| 20260901065901 | 85 | 8 | 0.0 | 1.0 | 0.00 | 0.00 | 0.00 | 29 | 1010.6 |
| 20260901065402 | 85 | 41 | 0.0 | 2.0 | 0.00 | 0.00 | 0.00 | 28 | 1010.7 |
| 20260901065150 | 85 | 89 | 0.0 | 2.0 | 0.00 | 0.00 | 0.00 | 28 | 1010.7 |
| 20260901064401 | 85 | 93 | 0.0 | 1.0 | 0.00 | 0.00 | 0.00 | 28 | 1010.5 |
| 20260901063857 | 85 | 136 | 0.0 | 1.0 | 0.00 | 0.00 | 0.00 | 30 | 1010.5 |
| 20260901063352 | 85 | 135 | 0.0 | 1.0 | 0.00 | 0.00 | 0.00 | 29 | 1010.4 |
| 20260901062845 | 86 | 345 | 0.0 | 3.0 | 0.00 | 0.00 | 0.00 | 29 | 1010.3 |
| 20260901062338 | 86 | 345 | 1.0 | 4.0 | 0.00 | 0.00 | 0.00 | 29 | 1010.2 |
| 20260901061833 | 86 | 158 | 1.0 | 4.0 | 0.00 | 0.00 | 0.00 | 29 | 1010.2 |
| 20260901061333 | 86 | 115 | 0.0 | 2.0 | 0.00 | 0.00 | 0.00 | 29 | 1010.3 |
| 20260901060833 | 86 | 304 | 0.0 | 1.0 | 0.00 | 0.00 | 0.00 | 29 | 1010.2 |
| 20260901060334 | 86 | 303 | 1.0 | 5.0 | 0.00 | 0.00 | 0.00 | 29 | 1010.2 |
| 20260901055833 | 86 | 4 | 1.0 | 5.0 | 0.00 | 0.00 | 0.00 | 29 | 1010.2 |
| 20260901054832 | 86 | 323 | 0.0 | 1.0 | 0.00 | 0.00 | 0.00 | 29 | 1010.1 |
| 20260901054332 | 87 | 120 | 0.0 | 0.0 | 0.00 | 0.00 | 0.00 | 29 | 1010.2 |
| 20260901053830 | 87 | 120 | 0.0 | 0.0 | 0.00 | 0.00 | 0.00 | 29 | 1010.2 |
| 20260901053331 | 87 | 120 | 0.0 | 1.0 | 0.00 | 0.00 | 0.00 | 29 | 1010.2 |
| 20260901052832 | 87 | 120 | 0.0 | 1.0 | 0.00 | 0.00 | 0.00 | 28 | 1010.3 |
| 20260901052331 | 88 | 250 | 0.0 | 1.0 | 0.00 | 0.00 | 0.00 | 29 | 1010.2 |
| 20260901051832 | 88 | 350 | 0.0 | 3.0 | 0.00 | 0.00 | 0.00 | 28 | 1010.1 |
| 20260901051332 | 88 | 355 | 1.0 | 5.0 | 0.00 | 0.00 | 0.00 | 29 | 1010.3 |
| 20260901050834 | 88 | 338 | 0.0 | 5.0 | 0.00 | 0.00 | 0.00 | 29 | 1010.1 |
| 20260901050332 | 88 | 343 | 0.0 | 3.0 | 0.00 | 0.00 | 0.00 | 29 | 1010.1 |
| 20260901045833 | 88 | 205 | 1.0 | 4.0 | 0.00 | 0.00 | 0.00 | 28 | 1010.1 |
| 20260901045331 | 88 | 330 | 1.0 | 5.0 | 0.00 | 0.00 | 0.00 | 29 | 1009.9 |
| 20260901044831 | 88 | 330 | 1.0 | 5.0 | 0.00 | 0.00 | 0.00 | 28 | 1010.0 |
| 20260901044331 | 89 | 46 | 0.0 | 3.0 | 0.00 | 0.00 | 0.00 | 28 | 1010.0 |
| 20260901043831 | 89 | 6 | 0.0 | 2.0 | 0.00 | 0.00 | 0.00 | 28 | 1010.0 |
| 20260901043330 | 89 | 142 | 0.0 | 3.0 | 0.00 | 0.00 | 0.00 | 28 | 1009.9 |
| 20260901042831 | 89 | 58 | 1.0 | 3.0 | 0.00 | 0.00 | 0.00 | 28 | 1009.9 |
| 20260901042601 | 89 | 43 | 1.0 | 3.0 | 0.00 | 0.00 | 0.00 | 28 | 1009.8 |
| 20260901041830 | 90 | 63 | 1.0 | 7.0 | 0.00 | 0.00 | 0.00 | 29 | 1009.8 |
| 20260901041054 | 90 | 48 | 2.0 | 7.0 | 0.00 | 0.00 | 0.00 | 28 | 1009.8 |
| 20260901040332 | 91 | 63 | 1.0 | 7.0 | 0.00 | 0.00 | 0.00 | 29 | 1009.8 |
| 20260901035830 | 91 | 3 | 0.0 | 2.0 | 0.00 | 0.00 | 0.00 | 30 | 1009.7 |
| 20260901035332 | 92 | 58 | 0.0 | 2.0 | 0.00 | 0.00 | 0.00 | 30 | 1009.5 |
| 20260901034832 | 92 | 182 | 0.0 | 1.0 | 0.00 | 0.00 | 0.00 | 30 | 1009.4 |
| 20260901034331 | 92 | 98 | 1.0 | 4.0 | 0.00 | 0.00 | 0.00 | 30 | 1009.3 |
| 20260901033831 | 93 | 8 | 1.0 | 4.0 | 0.00 | 0.00 | 0.00 | 30 | 1009.2 |
| 20260901033332 | 93 | 72 | 1.0 | 4.0 | 0.00 | 0.00 | 0.00 | 30 | 1009.1 |
| 20260901032831 | 94 | 17 | 1.0 | 4.0 | 0.00 | 0.00 | 0.00 | 29 | 1009.1 |
| 20260901032331 | 94 | 141 | 1.0 | 4.0 | 0.00 | 0.00 | 0.00 | 27 | 1008.9 |
| 20260901031830 | 94 | 298 | 2.0 | 6.0 | 0.00 | 0.00 | 0.00 | 27 | 1008.8 |
| 20260901031332 | 94 | 270 | 3.0 | 6.0 | 0.00 | 0.00 | 0.00 | 27 | 1008.6 |
| 20260901030832 | 94 | 296 | 3.0 | 9.0 | 0.00 | 0.00 | 0.00 | 27 | 1008.5 |
| 20260901030330 | 94 | 294 | 2.0 | 9.0 | 0.00 | 0.00 | 0.00 | 28 | 1008.4 |
| 20260901025829 | 94 | 299 | 1.0 | 7.0 | 0.00 | 0.00 | 0.00 | 28 | 1008.4 |
| 20260901025329 | 95 | 300 | 1.0 | 5.0 | 0.00 | 0.00 | 0.00 | 29 | 1008.6 |
| 20260901024829 | 95 | 309 | 1.0 | 8.0 | 0.00 | 0.00 | 0.00 | 28 | 1008.6 |
| 20260901024330 | 95 | 303 | 1.0 | 8.0 | 0.00 | 0.00 | 0.00 | 26 | 1008.5 |
| 20260901023829 | 96 | 321 | 2.0 | 10.0 | 0.00 | 0.00 | 0.00 | 24 | 1008.4 |
| 20260901023329 | 96 | 321 | 3.0 | 10.0 | 0.00 | 0.00 | 0.00 | 26 | 1008.4 |
| 20260901022828 | 96 | 328 | 2.0 | 7.0 | 0.00 | 0.00 | 0.00 | 24 | 1008.3 |
| 20260901022329 | 96 | 31 | 3.0 | 10.0 | 0.00 | 0.00 | 0.00 | 24 | 1008.1 |
| 20260901021828 | 96 | 3 | 3.0 | 10.0 | 0.00 | 0.00 | 0.00 | 23 | 1008.0 |
| 20260901021330 | 97 | 342 | 1.0 | 6.0 | 0.00 | 0.00 | 0.00 | 23 | 1008.0 |
| 20260901020829 | 97 | 119 | 2.0 | 9.0 | 0.00 | 0.00 | 0.00 | 23 | 1007.7 |
| 20260901020329 | 98 | 83 | 6.0 | 16.0 | 0.00 | 0.00 | 0.00 | 22 | 1007.7 |
| 20260901015830 | 98 | 301 | 9.0 | 23.0 | 0.00 | 0.00 | 0.00 | 22 | 1007.5 |
| 20260901015557 | 98 | 243 | 8.0 | 23.0 | 0.00 | 0.00 | 0.00 | 22 | 1007.4 |
| 20260901014829 | 99 | 257 | 7.0 | 17.0 | 0.00 | 0.00 | 0.00 | 22 | 1007.3 |
| 20260901014329 | 99 | 244 | 8.0 | 18.0 | 0.00 | 0.00 | 0.00 | 21 | 1007.2 |
| 20260901013830 | 100 | 205 | 9.0 | 19.0 | 0.00 | 0.00 | 0.00 | 21 | 1007.2 |
| 20260901013328 | 100 | 278 | 11.0 | 19.0 | 0.00 | 0.00 | 0.00 | 21 | 1007.0 |
| 20260901012829 | 100 | 256 | 10.0 | 22.0 | 0.00 | 0.00 | 0.00 | 21 | 1007.0 |
| 20260901012553 | 101 | 321 | 9.0 | 22.0 | 0.00 | 0.00 | 0.00 | 21 | 1006.9 |
| 20260901011830 | 101 | 259 | 7.0 | 16.0 | 0.00 | 0.00 | 0.00 | 20 | 1007.0 |
| 20260901011329 | 102 | 243 | 6.0 | 14.0 | 0.00 | 0.00 | 0.00 | 20 | 1007.1 |
| 20260901010833 | 102 | 274 | 6.0 | 14.0 | 0.00 | 0.00 | 0.00 | 20 | 1007.2 |
| 20260901010547 | 103 | 247 | 7.0 | 15.0 | 0.00 | 0.00 | 0.00 | 19 | 1007.2 |
| 20260901005830 | 103 | 239 | 7.0 | 15.0 | 0.00 | 0.00 | 0.00 | 19 | 1007.2 |
| 20260901005330 | 104 | 243 | 5.0 | 13.0 | 0.00 | 0.00 | 0.00 | 19 | 1007.3 |
| 20260901004829 | 104 | 212 | 3.0 | 11.0 | 0.00 | 0.00 | 0.00 | 19 | 1007.3 |
| 20260901004551 | 104 | 231 | 2.0 | 8.0 | 0.00 | 0.00 | 0.00 | 19 | 1007.2 |
| 20260901003829 | 104 | 295 | 2.0 | 8.0 | 0.00 | 0.00 | 0.00 | 19 | 1007.1 |
| 20260901002829 | 103 | 11 | 3.0 | 9.0 | 0.00 | 0.00 | 0.00 | 21 | 1007.2 |
| 20260901002330 | 103 | 72 | 3.0 | 9.0 | 0.00 | 0.00 | 0.00 | 19 | 1007.2 |
| 20260901001829 | 103 | 331 | 4.0 | 9.0 | 0.00 | 0.00 | 0.00 | 20 | 1007.4 |
| 20260901001330 | 103 | 330 | 5.0 | 9.0 | 0.00 | 0.00 | 0.00 | 20 | 1007.2 |
| 20260901000829 | 104 | 333 | 3.0 | 9.0 | 0.00 | 0.00 | 0.00 | 20 | 1007.2 |
| 20260831235829 | 106 | 8 | 1.0 | 4.0 | 0.00 | 0.00 | 0.00 | 20 | 1007.4 |
| 20260831235600 | 106 | 258 | 1.0 | 4.0 | 0.00 | 0.00 | 0.00 | 19 | 1007.4 |
| 20260831234829 | 105 | 195 | 1.0 | 2.0 | 0.00 | 0.00 | 0.00 | 20 | 1007.5 |
| 20260831234330 | 104 | 194 | 1.0 | 5.0 | 0.00 | 0.00 | 0.00 | 20 | 1007.5 |
| 20260831233830 | 104 | 337 | 1.0 | 5.0 | 0.00 | 0.00 | 0.00 | 20 | 1007.5 |
| 20260831233559 | 104 | 51 | 2.0 | 5.0 | 0.00 | 0.00 | 0.00 | 21 | 1007.5 |
| 20260831232832 | 104 | 69 | 2.0 | 5.0 | 0.00 | 0.00 | 0.00 | 20 | 1007.5 |
| 20260831232331 | 105 | 52 | 1.0 | 5.0 | 0.00 | 0.00 | 0.00 | 20 | 1007.6 |
| 20260831231830 | 105 | 77 | 1.0 | 5.0 | 0.00 | 0.00 | 0.00 | 21 | 1007.6 |
| 20260831231331 | 104 | 147 | 2.0 | 5.0 | 0.00 | 0.00 | 0.00 | 21 | 1007.6 |
| 20260831230833 | 105 | 75 | 2.0 | 6.0 | 0.00 | 0.00 | 0.00 | 21 | 1007.6 |
| 20260831230330 | 104 | 62 | 2.0 | 9.0 | 0.00 | 0.00 | 0.00 | 21 | 1007.7 |
| 20260831225831 | 105 | 49 | 2.0 | 9.0 | 0.00 | 0.00 | 0.00 | 21 | 1007.7 |
| 20260831225331 | 104 | 150 | 2.0 | 6.0 | 0.00 | 0.00 | 0.00 | 21 | 1007.7 |
| 20260831224831 | 104 | 298 | 2.0 | 5.0 | 0.00 | 0.00 | 0.00 | 21 | 1007.8 |
| 20260831224330 | 104 | 32 | 2.0 | 5.0 | 0.00 | 0.00 | 0.00 | 21 | 1007.9 |
| 20260831223830 | 105 | 36 | 2.0 | 5.0 | 0.00 | 0.00 | 0.00 | 20 | 1008.0 |
| 20260831223331 | 105 | 83 | 1.0 | 5.0 | 0.00 | 0.00 | 0.00 | 20 | 1008.0 |
| 20260831222830 | 105 | 58 | 1.0 | 3.0 | 0.00 | 0.00 | 0.00 | 20 | 1008.2 |
| 20260831222331 | 105 | 72 | 1.0 | 4.0 | 0.00 | 0.00 | 0.00 | 20 | 1008.2 |
| 20260831221831 | 105 | 349 | 1.0 | 5.0 | 0.00 | 0.00 | 0.00 | 20 | 1008.2 |
| 20260831220831 | 104 | 342 | 2.0 | 5.0 | 0.00 | 0.00 | 0.00 | 20 | 1008.4 |
| 20260831220332 | 104 | 0 | 2.0 | 5.0 | 0.00 | 0.00 | 0.00 | 21 | 1008.4 |
| 20260831215330 | 105 | 89 | 2.0 | 7.0 | 0.00 | 0.00 | 0.00 | 20 | 1008.6 |
| 20260831215057 | 104 | 219 | 2.0 | 6.0 | 0.00 | 0.00 | 0.00 | 20 | 1008.6 |
| 20260831214321 | 104 | 77 | 1.0 | 6.0 | 0.00 | 0.00 | 0.00 | 21 | 1008.7 |
| 20260831213814 | 104 | 33 | 1.0 | 6.0 | 0.00 | 0.00 | 0.00 | 21 | 1008.7 |
| 20260831213311 | 104 | 336 | 1.0 | 6.0 | 0.00 | 0.00 | 0.00 | 22 | 1008.8 |
| 20260831213040 | 104 | 109 | 1.0 | 4.0 | 0.00 | 0.00 | 0.00 | 21 | 1008.9 |
| 20260831212313 | 103 | 266 | 1.0 | 5.0 | 0.00 | 0.00 | 0.00 | 21 | 1008.9 |
| 20260831211808 | 103 | 79 | 2.0 | 8.0 | 0.00 | 0.00 | 0.00 | 21 | 1009.0 |
| 20260831211309 | 102 | 51 | 3.0 | 8.0 | 0.00 | 0.00 | 0.00 | 21 | 1009.0 |
| 20260831210809 | 103 | 50 | 2.0 | 6.0 | 0.00 | 0.00 | 0.00 | 22 | 1009.1 |
| 20260831210307 | 103 | 342 | 2.0 | 6.0 | 0.00 | 0.00 | 0.00 | 21 | 1009.3 |
| 20260831205807 | 103 | 44 | 2.0 | 5.0 | 0.00 | 0.00 | 0.00 | 22 | 1009.3 |
| 20260831205307 | 102 | 20 | 2.0 | 5.0 | 0.00 | 0.00 | 0.00 | 21 | 1009.4 |
| 20260831205034 | 103 | 34 | 2.0 | 6.0 | 0.00 | 0.00 | 0.00 | 21 | 1009.4 |
| 20260831204308 | 103 | 48 | 2.0 | 6.0 | 0.00 | 0.00 | 0.00 | 22 | 1009.3 |
| 20260831204035 | 103 | 60 | 1.0 | 5.0 | 0.00 | 0.00 | 0.00 | 21 | 1009.5 |
| 20260831203534 | 103 | 90 | 1.0 | 5.0 | 0.00 | 0.00 | 0.00 | 20 | 1009.5 |
| 20260831202806 | 103 | 122 | 2.0 | 5.0 | 0.00 | 0.00 | 0.00 | 20 | 1009.7 |
| 20260831202302 | 103 | 62 | 2.0 | 6.0 | 0.00 | 0.00 | 0.00 | 20 | 1009.8 |
| 20260831201802 | 103 | 82 | 2.0 | 6.0 | 0.00 | 0.00 | 0.00 | 21 | 1009.9 |
| 20260831201303 | 102 | 109 | 3.0 | 7.0 | 0.00 | 0.00 | 0.00 | 20 | 1010.0 |
| 20260831200801 | 101 | 59 | 3.0 | 7.0 | 0.00 | 0.00 | 0.00 | 20 | 1010.1 |
| 20260831200302 | 102 | 53 | 3.0 | 7.0 | 0.00 | 0.00 | 0.00 | 20 | 1010.0 |
| 20260831195802 | 102 | 29 | 2.0 | 6.0 | 0.00 | 0.00 | 0.00 | 20 | 1010.1 |
| 20260831195029 | 102 | 72 | 2.0 | 5.0 | 0.00 | 0.00 | 0.00 | 20 | 1010.2 |
| 20260831194301 | 101 | 295 | 2.0 | 7.0 | 0.00 | 0.00 | 0.00 | 19 | 1010.2 |
| 20260831193758 | 101 | 171 | 2.0 | 7.0 | 0.00 | 0.00 | 0.00 | 20 | 1010.2 |
| 20260831193254 | 101 | 226 | 2.0 | 7.0 | 0.00 | 0.00 | 0.00 | 20 | 1010.3 |
| 20260831192747 | 101 | 235 | 2.0 | 7.0 | 0.00 | 0.00 | 0.00 | 20 | 1010.2 |
| 20260831192241 | 101 | 113 | 3.0 | 9.0 | 0.00 | 0.00 | 0.00 | 20 | 1010.3 |
| 20260831191735 | 101 | 57 | 2.0 | 9.0 | 0.00 | 0.00 | 0.00 | 20 | 1010.4 |
| 20260831191233 | 100 | 133 | 2.0 | 5.0 | 0.00 | 0.00 | 0.00 | 20 | 1010.4 |
| 20260831190730 | 100 | 112 | 3.0 | 8.0 | 0.00 | 0.00 | 0.00 | 20 | 1010.6 |
| 20260831190230 | 101 | 80 | 3.0 | 10.0 | 0.00 | 0.00 | 0.00 | 19 | 1010.7 |
| 20260831185955 | 100 | 98 | 3.0 | 10.0 | 0.00 | 0.00 | 0.00 | 20 | 1010.7 |
| 20260831185231 | 100 | 340 | 3.0 | 7.0 | 0.00 | 0.00 | 0.00 | 21 | 1010.7 |
| 20260831184730 | 100 | 122 | 3.0 | 7.0 | 0.00 | 0.00 | 0.00 | 20 | 1010.7 |
| 20260831184229 | 100 | 200 | 3.0 | 9.0 | 0.00 | 0.00 | 0.00 | 20 | 1010.7 |
| 20260831183731 | 99 | 73 | 4.0 | 9.0 | 0.00 | 0.00 | 0.00 | 20 | 1010.7 |
| 20260831183230 | 99 | 67 | 3.0 | 8.0 | 0.00 | 0.00 | 0.00 | 20 | 1010.8 |
| 20260831182729 | 99 | 89 | 3.0 | 8.0 | 0.00 | 0.00 | 0.00 | 20 | 1010.8 |
| 20260831182230 | 99 | 97 | 3.0 | 7.0 | 0.00 | 0.00 | 0.00 | 21 | 1010.8 |
| 20260831181730 | 99 | 115 | 3.0 | 9.0 | 0.00 | 0.00 | 0.00 | 21 | 1010.8 |
| 20260831181458 | 98 | 139 | 1.0 | 9.0 | 0.00 | 0.00 | 0.00 | 21 | 1010.8 |
| 20260831180729 | 99 | 61 | 1.0 | 4.0 | 0.00 | 0.00 | 0.00 | 22 | 1010.8 |
| 20260831180459 | 98 | 157 | 2.0 | 4.0 | 0.00 | 0.00 | 0.00 | 23 | 1010.8 |
| 20260831175729 | 97 | 70 | 2.0 | 6.0 | 0.00 | 0.00 | 0.00 | 22 | 1010.9 |
| 20260831175229 | 97 | 40 | 1.0 | 6.0 | 0.00 | 0.00 | 0.00 | 22 | 1010.8 |
| 20260831174734 | 97 | 61 | 2.0 | 5.0 | 0.00 | 0.00 | 0.00 | 23 | 1011.0 |
| 20260831173729 | 97 | 339 | 1.0 | 6.0 | 0.00 | 0.00 | 0.00 | 22 | 1010.9 |
| 20260831173229 | 97 | 44 | 1.0 | 4.0 | 0.00 | 0.00 | 0.00 | 22 | 1010.9 |
| 20260831172732 | 97 | 24 | 1.0 | 3.0 | 0.00 | 0.00 | 0.00 | 23 | 1011.0 |
| 20260831172231 | 96 | 63 | 1.0 | 3.0 | 0.00 | 0.00 | 0.00 | 22 | 1011.0 |
| 20260831171730 | 96 | 84 | 1.0 | 4.0 | 0.00 | 0.00 | 0.00 | 23 | 1011.1 |
| 20260831171231 | 96 | 47 | 1.0 | 4.0 | 0.00 | 0.00 | 0.00 | 23 | 1011.2 |
| 20260831170732 | 96 | 129 | 1.0 | 4.0 | 0.00 | 0.00 | 0.00 | 22 | 1011.0 |
| 20260831170229 | 96 | 112 | 1.0 | 3.0 | 0.00 | 0.00 | 0.00 | 24 | 1011.0 |
| 20260831165729 | 95 | 237 | 1.0 | 4.0 | 0.00 | 0.00 | 0.00 | 23 | 1010.9 |
| 20260831165230 | 95 | 106 | 0.0 | 4.0 | 0.00 | 0.00 | 0.00 | 23 | 1011.0 |
| 20260831164730 | 95 | 62 | 0.0 | 4.0 | 0.00 | 0.00 | 0.00 | 26 | 1010.9 |
| 20260831164229 | 94 | 58 | 1.0 | 4.0 | 0.00 | 0.00 | 0.00 | 24 | 1011.0 |
| 20260831163730 | 94 | 110 | 0.0 | 2.0 | 0.00 | 0.00 | 0.00 | 26 | 1010.9 |
| 20260831163230 | 94 | 53 | 0.0 | 3.0 | 0.00 | 0.00 | 0.00 | 26 | 1010.9 |
| 20260831162728 | 94 | 129 | 0.0 | 3.0 | 0.00 | 0.00 | 0.00 | 24 | 1011.0 |
| 20260831162459 | 93 | 125 | 0.0 | 2.0 | 0.00 | 0.00 | 0.00 | 27 | 1011.0 |
| 20260831162002 | 92 | 6 | 0.0 | 3.0 | 0.00 | 0.00 | 0.00 | 29 | 1010.9 |
| 20260831161229 | 92 | 71 | 0.0 | 3.0 | 0.00 | 0.00 | 0.00 | 28 | 1010.8 |
| 20260831160730 | 92 | 46 | 0.0 | 2.0 | 0.00 | 0.00 | 0.00 | 30 | 1010.9 |
| 20260831160455 | 91 | 71 | 0.0 | 1.0 | 0.00 | 0.00 | 0.00 | 30 | 1010.8 |
| 20260831155729 | 91 | 34 | 0.0 | 2.0 | 0.00 | 0.00 | 0.00 | 30 | 1010.8 |
| 20260831155229 | 91 | 113 | 0.0 | 2.0 | 0.00 | 0.00 | 0.00 | 32 | 1010.8 |
| 20260831154730 | 91 | 155 | 1.0 | 2.0 | 0.00 | 0.00 | 0.00 | 33 | 1010.7 |
| 20260831154511 | 90 | 203 | 1.0 | 3.0 | 0.00 | 0.00 | 0.00 | 34 | 1010.7 |
| 20260831153959 | 89 | 124 | 1.0 | 3.0 | 0.00 | 0.00 | 0.00 | 36 | 1010.6 |